Location: Shenandoah County Park
(38.9356°N, 78.4524°W)
Time: 12:07:22
(UTC-04:00)

Vanguard 1 Rocket - Visible Passes

Search period start: 25 July 2024 00:00
Search period end: 04 August 2024 00:00
Orbit: 650 x 4220 km, 34.3° (Epoch: 25 July)

Date Brightness Start Highest point End Pass type
(mag) Time Alt. Az. Time Alt. Az. Time Alt. Az.
25 Jul 7.2 20:58:30 10° WSW 21:02:43 49° S 21:07:50 10° ESE visible
25 Jul 8.6 23:22:52 10° WSW 23:25:41 25° SW 23:25:41 25° SW visible
26 Jul 7.8 22:11:23 10° W 22:15:33 36° SSW 22:17:24 28° SSE visible
27 Jul 7.3 20:59:48 10° W 21:03:58 44° S 21:08:53 10° ESE visible
27 Jul 9.0 23:24:42 10° WSW 23:26:19 17° SW 23:26:19 17° SW visible
28 Jul 8.1 22:12:54 10° WSW 22:16:48 28° SSW 22:18:05 25° S visible
29 Jul 7.5 21:01:09 10° W 21:05:13 37° SSW 21:09:50 10° SE visible
29 Jul 9.4 23:27:01 10° SW 23:27:03 10° SW 23:27:03 10° SW visible
30 Jul 8.5 22:14:36 10° WSW 22:18:00 21° SSW 22:18:52 20° S visible
31 Jul 7.9 21:02:32 10° W 21:06:25 30° SSW 21:10:39 10° SE visible
01 Aug 8.8 22:16:41 10° WSW 22:19:11 14° SSW 22:19:44 14° SSW visible
02 Aug 8.3 21:04:02 10° WSW 21:07:34 23° SSW 21:11:16 10° SSE visible
